Tiempo atmosférico en la estación meteorológica de Mogán, Puerto, Las Palmas (10 m.)



Fecha
DESCASC
Temp. máxima en grados centígrados (hora)
DESCASC
Temp. mínima en grados centígrados (hora)
DESCASC
Temp. media en grados centígrados
DESCASC
Racha de viento máxima en m/sg (hora)
DESCASC
Velocidad máxima media en intervalos de 10 minutos(hora)
DESCASC
Precipitaciones diarias en mm
DESCASC
Precipitaciones de 00:00 a 06:00 en mm
DESCASC
Precipitaciones de 06:00 a 12:00 en mm
DESCASC
Precipitaciones de 12:00 a 18:00 en mm
DESCASC
Precipitaciones de 18:00 a 24:00 en mm
DESCASC
25-04-2019 23.4 (17:10) 13.5 (07:10) 18.4 7.5 (16:20) 5.83 (19:30) 0 0 0 0 0
24-04-2019 23.5 (16:00) 15.3 (07:10) 19.4 12.5 (19:10) 9.72 (19:00) 0 0 0 0 0
23-04-2019 24.3 (17:40) 13 (06:40) 18.6 10.28 (17:50) 6.67 (18:00) 0 0 0 0 0
22-04-2019 24.2 (16:00) 13.2 (00:00) 18.7 13.89 (11:50) 5.28 (23:59) 0 0 0 0 0
21-04-2019 24 (12:20) 14.4 (00:00) 19.2 8.89 (00:20) 5.83 (15:40) 0 0 0 0 0
20-04-2019 23.6 (15:00) 14.7 (00:00) 19.2 10.56 (13:50) 8.06 (15:40) 0 0 0 0 0
19-04-2019 23.4 (15:20) 15.6 (00:00) 19.5 10.28 (12:40) 6.11 (17:20) 0 0 0 0 0
18-04-2019 24.1 (15:40) 15.8 (00:00) 20 9.17 (18:30) 7.78 (18:40) 0 0 0 0 0
17-04-2019 23.8 (15:40) 14.7 (00:00) 19.2 7.78 (20:40) 6.11 (20:00) 0 0 0 0 0
16-04-2019 -- (--) -- (--) -- 11.11 (06:50) 6.94 (18:20) -- 0 -- 0 0
15-04-2019 26.6 (12:10) 18.8 (00:00) 22.7 5.83 (13:40) 4.72 (13:40) 0 0 0 0 0
14-04-2019 27.1 (14:50) 18.7 (00:00) 22.9 10 (17:00) 7.78 (17:00) 0 0 0 0 0
13-04-2019 26.4 (13:40) 18.8 (00:00) 22.6 8.06 (21:00) 6.11 (14:30) 0 0 0 0 0
12-04-2019 28 (14:00) 19.1 (00:00) 23.6 7.78 (19:50) 6.67 (20:00) 0.1 0 0 0 0.1
11-04-2019 26.2 (11:50) 19 (00:00) 22.6 5.83 (21:00) 4.17 (20:50) 0.3 0.1 0 0 0.2
10-04-2019 26.1 (10:30) 19.6 (00:00) 22.9 7.22 (18:10) 5.28 (18:00) -- 0.1 -- 0 0
09-04-2019 26.8 (16:30) 18.9 (00:00) 22.8 7.22 (22:40) 4.72 (22:40) 0 0 0 0 0
08-04-2019 26.1 (11:50) 18.6 (00:00) 22.4 8.06 (14:30) 6.11 (14:40) 0 0 0 0 0
07-04-2019 26.5 (14:20) 18.5 (00:00) 22.5 8.89 (20:30) 6.67 (19:20) 0 0 0 0 0
06-04-2019 27.4 (14:40) 20.4 (00:00) 23.9 15 (16:20) 8.89 (18:10) 0 0 0 0 0
05-04-2019 27 (14:40) 18.3 (00:00) 22.6 14.17 (21:40) 7.5 (12:00) 0 0 0 0 0
04-04-2019 25.8 (18:00) 19.2 (00:00) 22.5 8.61 (02:30) 5.83 (02:30) 0 0 0 0 0
03-04-2019 26.3 (10:50) 19.3 (00:00) 22.8 11.39 (11:30) 6.67 (11:30) 0 0 0 0 0
02-04-2019 25.6 (14:40) 18.9 (00:00) 22.3 11.39 (10:10) 7.22 (11:30) 0.1 0 0.1 0 0
01-04-2019 24.9 (12:40) 18.1 (00:00) 21.5 7.22 (11:50) 6.39 (11:50) 0 0 0 0 0
31-03-2019 26.1 (14:10) 16.6 (00:00) 21.4 7.22 (17:50) 5.28 (18:00) 0 0 0 0 0
30-03-2019 24.9 (15:00) 17.3 (00:00) 21.1 6.39 (19:20) 5 (13:40) 0.1 0 0 0.1 0
29-03-2019 26 (10:00) 18 (00:00) 22 8.06 (19:40) 5 (20:50) 0 0 0 0 0
28-03-2019 26.3 (09:50) 17.9 (00:00) 22.1 5 (07:00) 3.89 (07:00) 0.1 0 0.1 0 0
27-03-2019 26 (17:00) 14.9 (00:00) 20.4 5.28 (19:40) 4.44 (18:20) -- -- -- 0 0

Gráficas

Temp. máximas Temp. mínimas Temp. medias Precipitaciones Rachas de viento máximas Velocidades máximas media en intervalos de 10 minutos

Datos horarios

Fecha y hora oficial Temperatura (ºC) Velocidad del viento (km/h) Dirección del viento Racha (km/h) Dirección de racha Precipitación (mm) Presión (hPa) Tendencia (hPa) Humedad (%)
2019-04-25 23:00:00 18.9 5 Este 14 Sudoeste 0 -- -- 55
2019-04-25 22:00:00 19.3 13 Sudoeste 21 Oeste 0 -- -- 55
2019-04-25 21:00:00 21 14 Oeste 22 Sur 0 -- -- 57
2019-04-25 20:00:00 19.5 17 Sur 27 Sudeste 0 -- -- 57
2019-04-25 19:00:00 20.6 18 Sudeste 23 Sudeste 0 -- -- 53
2019-04-25 18:00:00 22.1 17 Sudeste 20 Este 0 -- -- 47
2019-04-25 17:00:00 23.1 4 Sudeste 27 Sudoeste 0 -- -- 44
2019-04-25 16:00:00 20.6 18 Sudoeste 24 Sudoeste 0 -- -- 49
2019-04-25 15:00:00 21.5 13 Sudoeste 18 Sudoeste 0 -- -- 47
2019-04-25 14:00:00 20.6 12 Sur 18 Sur 0 -- -- 45
2019-04-25 13:00:00 21.3 15 Sudeste 24 Sudeste 0 -- -- 46
2019-04-25 12:00:00 21.2 19 Sudeste 24 Sudeste 0 -- -- 46
2019-04-25 11:00:00 20.2 13 Sudeste 21 Sudeste 0 -- -- 49
2019-04-25 10:00:00 19.9 3 Oeste 14 Norte 0 -- -- 49
2019-04-25 09:00:00 17.6 9 Norte 17 Norte 0 -- -- 47
2019-04-25 08:00:00 16.5 13 Norte 17 Norte 0 -- -- 52
2019-04-25 07:00:00 16.2 12 Norte 16 Norte 0 -- -- 53
2019-04-25 06:00:00 17 11 Nordeste 15 Nordeste 0 -- -- 52
2019-04-25 05:00:00 18.5 10 Nordeste 15 Nordeste 0 -- -- 51
2019-04-25 04:00:00 18.1 8 Nordeste 14 Norte 0 -- -- 52
2019-04-25 03:00:00 15.1 8 Norte 11 Norte 0 -- -- 53
2019-04-25 02:00:00 19.5 3 Norte 6 Oeste 0 -- -- 55
2019-04-25 01:00:00 18.6 2 Norte 16 Sudeste 0 -- -- 53
2019-04-25 00:00:00 18.6 4 Sudeste 11 Sudeste 0 -- -- 53
2019-04-24 23:00:00 18.9 6 Sudeste 17 Sudeste 0 -- -- 52
2019-04-24 22:00:00 19.7 14 Sudeste 16 Sudeste 0 -- -- 48
2019-04-24 21:00:00 20.1 13 Oeste 31 Oeste 0 -- -- 47
2019-04-24 20:00:00 20.7 24 Oeste 45 Oeste 0 -- -- 46
2019-04-24 19:00:00 19.2 35 Oeste 44 Oeste 0 -- -- 51
2019-04-24 18:00:00 20.1 25 Oeste 37 Oeste 0 -- -- 50
2019-04-24 17:00:00 21.3 23 Oeste 32 Noroeste 0 -- -- 48
2019-04-24 16:00:00 19.7 17 Oeste 23 Oeste 0 -- -- 49
2019-04-24 15:00:00 21.2 9 Sudoeste 18 Sudoeste 0 -- -- 47
2019-04-24 14:00:00 19.7 14 Sudoeste 19 Sudoeste 0 -- -- 49
2019-04-24 13:00:00 20.4 12 Sudoeste 16 Sudoeste 0 -- -- 48
2019-04-24 12:00:00 21.2 11 Sur 17 Sur 0 -- -- 46
2019-04-24 11:00:00 19.8 11 Sur 16 Sur 0 -- -- 48
2019-04-24 10:00:00 21 7 Sudeste 15 Norte 0 -- -- 43
2019-04-24 09:00:00 18.3 11 Norte 15 Norte 0 -- -- 43
2019-04-24 08:00:00 16.8 13 Norte 17 Norte 0 -- -- 47
2019-04-24 07:00:00 16.3 10 Norte 12 Norte 0 -- -- 46
2019-04-24 06:00:00 17.1 6 Norte 9 Norte 0 -- -- 43
2019-04-24 05:00:00 18.2 0 Calma 17 Nordeste 0 -- -- 42
2019-04-24 04:00:00 18.1 2 Noroeste 13 Norte 0 -- -- 41
2019-04-24 03:00:00 17.7 6 Norte 11 Nordeste 0 -- -- 43
2019-04-24 02:00:00 17.9 3 Noroeste 8 Norte 0 -- -- 43
2019-04-24 01:00:00 19.2 5 Noroeste 13 Norte 0 -- -- 40
2019-04-24 00:00:00 18.7 0 Calma 9 Nordeste 0 -- -- 42
2019-04-23 23:00:00 19.6 4 Nordeste 30 Nordeste 0 -- -- 37
2019-04-23 22:00:00 20.1 14 Nordeste 30 Nordeste 0 -- -- 38
2019-04-23 21:00:00 20.4 20 Nordeste 29 Nordeste 0 -- -- 40
2019-04-23 20:00:00 21.5 15 Nordeste 30 Oeste 0 -- -- 38
2019-04-23 19:00:00 22.4 21 Oeste 31 Oeste 0 -- -- 40
2019-04-23 18:00:00 21.8 24 Oeste 37 Oeste 0 -- -- 43
2019-04-23 17:00:00 20.8 10 Sudeste 14 Sudeste 0 -- -- 57
2019-04-23 16:00:00 21.1 8 Sudeste 11 Este 0 -- -- 55
2019-04-23 15:00:00 21.3 9 Sudeste 19 Sudeste 0 -- -- 59
2019-04-23 14:00:00 22.1 16 Sudeste 20 Sudeste 0 -- -- 54
2019-04-23 13:00:00 22.8 12 Sudeste 15 Sudeste 0 -- -- 56
2019-04-23 12:00:00 20.5 9 Sudeste 14 Sudeste 0 -- -- 59
2019-04-23 11:00:00 20.4 6 Sur 10 Sudoeste 0 -- -- 58
2019-04-23 10:00:00 21.7 3 Sudeste 10 Norte 0 -- -- 56
2019-04-23 09:00:00 15.3 7 Norte 14 Norte 0 -- -- 60
2019-04-23 08:00:00 14.2 10 Norte 15 Norte 0 -- -- 63
2019-04-23 07:00:00 15.8 11 Norte 15 Norte 0 -- -- 64
2019-04-23 06:00:00 16.4 11 Norte 13 Norte 0 -- -- 64
2019-04-23 05:00:00 16 6 Norte 9 Norte 0 -- -- 63
2019-04-23 04:00:00 17.4 4 Nordeste 7 Norte 0 -- -- 63
2019-04-23 03:00:00 19.5 6 Este 12 Sudeste 0 -- -- 63
2019-04-23 02:00:00 20.3 7 Sudeste 18 Sudeste 0 -- -- 63
2019-04-23 01:00:00 17.8 16 Sudeste 32 Sudeste 0 -- -- 62
2019-04-23 00:00:00 21 19 Este 31 Sudeste 0 -- -- 60
2019-04-22 23:00:00 20.1 9 Sudeste 18 Este 0 -- -- 61
2019-04-22 22:00:00 19.3 13 Sudeste 17 Sudeste 0 -- -- 61
2019-04-22 21:00:00 18.9 0 Calma 10 Sudoeste 0 -- -- 59
2019-04-22 20:00:00 19.6 9 Sudoeste 14 Oeste 0 -- -- 57
2019-04-22 19:00:00 20.5 11 Sudoeste 15 Sur 0 -- -- 55
2019-04-22 18:00:00 21.6 12 Sur 17 Sur 0 -- -- 53
2019-04-22 17:00:00 21.3 13 Sudoeste 16 Sudoeste 0 -- -- 52
2019-04-22 16:00:00 22.3 10 Sur 17 Sur 0 -- -- 49
2019-04-22 15:00:00 20.9 11 Sur 20 Sudeste 0 -- -- 53
2019-04-22 14:00:00 20.4 16 Sudeste 33 Sudeste 0 -- -- 56
2019-04-22 13:00:00 18.7 14 Sudeste 20 Sudeste 0 -- -- 57
2019-04-22 12:00:00 19.4 16 Sudeste 50 Sudeste 0 -- -- 57
2019-04-22 11:00:00 19.7 18 Sudeste 21 Sudeste 0 -- -- 56
2019-04-22 10:00:00 22.4 9 Este 19 Este 0 -- -- 52
2019-04-22 09:00:00 18.4 11 Norte 15 Nordeste 0 -- -- 56
2019-04-22 08:00:00 16.7 12 Norte 15 Norte 0 -- -- 57
2019-04-22 07:00:00 16.3 12 Norte 15 Norte 0 -- -- 58
2019-04-22 06:00:00 16.2 12 Norte 15 Norte 0 -- -- 57
2019-04-22 05:00:00 17 12 Norte 14 Norte 0 -- -- 58
2019-04-22 04:00:00 16.5 10 Norte 13 Norte 0 -- -- 57
2019-04-22 03:00:00 18.9 8 Norte 12 Norte 0 -- -- 59
2019-04-22 02:00:00 17.2 8 Norte 10 Norte 0 -- -- 58
2019-04-22 01:00:00 18.7 6 Este 15 Sudeste 0 -- -- 59
2019-04-22 00:00:00 19.9 9 Este 16 Sudeste 0 -- -- 57
2019-04-21 23:00:00 19 5 Este 15 Este 0 -- -- 56
2019-04-21 22:00:00 19.3 7 Este 16 Sudeste 0 -- -- 55
2019-04-21 21:00:00 19.5 12 Sudeste 17 Sur 0 -- -- 55
2019-04-21 20:00:00 19.4 12 Sudeste 17 Sudeste 0 -- -- 53
2019-04-21 19:00:00 19.7 14 Sudeste 17 Sudeste 0 -- -- 51
2019-04-21 18:00:00 22.2 5 Sur 12 Sur 0 -- -- 46
2019-04-21 17:00:00 20.8 9 Sur 19 Sudeste 0 -- -- 49
2019-04-21 16:00:00 19.9 18 Sudeste 24 Sudeste 0 -- -- 50
2019-04-21 15:00:00 22.1 19 Sudeste 27 Sudeste 0 -- -- 43
2019-04-21 14:00:00 22.8 6 Sudeste 28 Sudeste 0 -- -- 42
2019-04-21 13:00:00 22.1 18 Sudeste 23 Este 0 -- -- 42
2019-04-21 12:00:00 23 14 Este 21 Sudeste 0 -- -- 45
2019-04-21 11:00:00 20.3 12 Sudeste 15 Sur 0 -- -- 49
2019-04-21 10:00:00 20.7 5 Sudeste 9 Sudeste 0 -- -- 48
2019-04-21 09:00:00 17.9 8 Norte 15 Norte 0 -- -- 51
2019-04-21 08:00:00 17.4 11 Norte 16 Norte 0 -- -- 53
2019-04-21 07:00:00 17.2 9 Norte 11 Norte 0 -- -- 53
2019-04-21 06:00:00 18.1 6 Nordeste 12 Este 0 -- -- 52
2019-04-21 05:00:00 18.4 6 Este 15 Este 0 -- -- 51
2019-04-21 04:00:00 19.1 2 Noroeste 24 Norte 0 -- -- 39
2019-04-21 03:00:00 19.3 8 Norte 22 Nordeste 0 -- -- 39
2019-04-21 02:00:00 19.5 4 Norte 16 Noroeste 0 -- -- 42
2019-04-21 01:00:00 19.4 6 Noroeste 32 Oeste 0 -- -- 43
2019-04-21 00:00:00 19.3 15 Oeste 24 Oeste 0 -- -- 46
2019-04-20 23:00:00 19.8 18 Oeste 25 Oeste 0 -- -- 46
2019-04-20 22:00:00 19.4 10 Sudeste 18 Sudeste 0 -- -- 51
2019-04-20 21:00:00 20 4 Este 13 Este 0 -- -- 43
2019-04-20 20:00:00 19.7 3 Oeste 15 Sudoeste 0 -- -- 48
2019-04-20 19:00:00 19.6 12 Sur 20 Sur 0 -- -- 49
2019-04-20 18:00:00 19.7 12 Sur 17 Sudeste 0 -- -- 49
2019-04-20 17:00:00 19.3 12 Sudeste 30 Sudeste 0 -- -- 49
2019-04-20 16:00:00 20.1 27 Sudeste 33 Sudeste 0 -- -- 48
2019-04-20 15:00:00 23.3 5 Oeste 38 Noroeste 0 -- -- 39
2019-04-20 14:00:00 20.2 20 Oeste 38 Oeste 0 -- -- 44
2019-04-20 13:00:00 20.9 5 Oeste 24 Oeste 0 -- -- 42
2019-04-20 12:00:00 20.5 17 Este 23 Este 0 -- -- 45
2019-04-20 11:00:00 19.4 9 Sur 14 Sur 0 -- -- 45
2019-04-20 10:00:00 20.7 5 Sudoeste 9 Sudoeste 0 -- -- 42
2019-04-20 09:00:00 18.2 5 Nordeste 12 Nordeste 0 -- -- 50
2019-04-20 08:00:00 16.3 9 Nordeste 12 Norte 0 -- -- 54
2019-04-20 07:00:00 16.5 7 Norte 13 Nordeste 0 -- -- 53
2019-04-20 06:00:00 16.1 12 Norte 17 Norte 0 -- -- 53
2019-04-20 05:00:00 16.3 9 Norte 14 Norte 0 -- -- 54
2019-04-20 04:00:00 17.1 7 Norte 11 Norte 0 -- -- 54
2019-04-20 03:00:00 17.9 4 Nordeste 18 Este 0 -- -- 52
2019-04-20 02:00:00 17.9 8 Este 22 Sudeste 0 -- -- 52
2019-04-20 01:00:00 18.3 7 Nordeste 16 Sudeste 0 -- -- 51
2019-04-20 00:00:00 19.3 9 Este 17 Sur 0 -- -- 52
2019-04-19 23:00:00 18.9 13 Sudeste 18 Este 0 -- -- 52
2019-04-19 22:00:00 19.4 11 Sur 18 Sudeste 0 -- -- 49
2019-04-19 21:00:00 19.6 12 Sudeste 19 Sudeste 0 -- -- 45
2019-04-19 20:00:00 20.8 5 Sudeste 24 Oeste 0 -- -- 41
2019-04-19 19:00:00 21.6 3 Oeste 35 Sudoeste 0 -- -- 43
2019-04-19 18:00:00 20.7 17 Sur 28 Sudeste 0 -- -- 45
2019-04-19 17:00:00 21.5 14 Sudeste 19 Sudeste 0 -- -- 42
2019-04-19 16:00:00 23.2 5 Sudeste 13 Sudeste 0 -- -- 40
2019-04-19 15:00:00 22.8 4 Sur 19 Sur 0 -- -- 41
2019-04-19 14:00:00 19.9 18 Sudoeste 30 Sudoeste 0 -- -- 47
2019-04-19 13:00:00 20 15 Sudoeste 37 Sudoeste 0 -- -- 46
2019-04-19 12:00:00 19.5 14 Sudeste 24 Sudeste 0 -- -- 48
2019-04-19 11:00:00 20.2 16 Sudeste 23 Este 0 -- -- 44
2019-04-19 10:00:00 20.2 12 Sudeste 18 Sudeste 0 -- -- 47
2019-04-19 09:00:00 17.3 5 Norte 12 Norte 0 -- -- 52
2019-04-19 08:00:00 16.6 10 Norte 13 Norte 0 -- -- 52
2019-04-19 07:00:00 17.5 9 Nordeste 17 Sudeste 0 -- -- 51
2019-04-19 06:00:00 17.9 0 Calma 15 Sudeste 0 -- -- 50
2019-04-19 05:00:00 17.7 8 Nordeste 13 Nordeste 0 -- -- 49
2019-04-19 04:00:00 17.4 7 Norte 11 Norte 0 -- -- 47
2019-04-19 03:00:00 18.3 7 Nordeste 12 Nordeste 0 -- -- 44
2019-04-19 02:00:00 18.4 5 Este 10 Norte 0 -- -- 43
2019-04-19 01:00:00 18.6 7 Nordeste 19 Nordeste 0 -- -- 36
2019-04-19 00:00:00 19.1 12 Norte 19 Norte 0 -- -- 35
2019-04-18 23:00:00 19.2 5 Este 17 Nordeste 0 -- -- 37
2019-04-18 22:00:00 19.6 7 Nordeste 14 Nordeste 0 -- -- 40
2019-04-18 21:00:00 19.6 8 Sudoeste 19 Sur 0 -- -- 50
2019-04-18 20:00:00 19.3 16 Sur 27 Sudeste 0 -- -- 49
2019-04-18 19:00:00 20.3 24 Sudeste 33 Sudeste 0 -- -- 48
2019-04-18 18:00:00 22.5 22 Sudeste 29 Sudeste 0 -- -- 43
2019-04-18 17:00:00 22.8 15 Sudeste 18 Sudeste 0 -- -- 41
2019-04-18 16:00:00 22.4 8 Sudeste 27 Sur 0 -- -- 40
2019-04-18 15:00:00 20.4 21 Sur 30 Sur 0 -- -- 48
2019-04-18 14:00:00 21.1 18 Sur 28 Sur 0 -- -- 46
2019-04-18 13:00:00 22.1 16 Sur 21 Sur 0 -- -- 43
2019-04-18 12:00:00 20.3 13 Sudeste 19 Sudeste 0 -- -- 47
2019-04-18 11:00:00 22.1 14 Sudeste 19 Sudeste 0 -- -- 43
2019-04-18 10:00:00 21.6 6 Sudeste 8 Sudeste 0 -- -- 43
2019-04-18 09:00:00 18.3 7 Norte 15 Norte 0 -- -- 42
2019-04-18 08:00:00 16.6 8 Norte 12 Norte 0 -- -- 43
2019-04-18 07:00:00 17 6 Norte 12 Norte 0 -- -- 42
2019-04-18 06:00:00 17.7 4 Nordeste 9 Norte 0 -- -- 42
2019-04-18 05:00:00 17.6 4 Norte 9 Norte 0 -- -- 42
2019-04-18 04:00:00 18.1 4 Norte 13 Noroeste 0 -- -- 41
2019-04-18 03:00:00 18.2 2 Norte 21 Norte 0 -- -- 40
2019-04-18 02:00:00 20.4 13 Noroeste 23 Norte 0 -- -- 39
2019-04-18 01:00:00 19.7 7 Norte 17 Noroeste 0 -- -- 43
2019-04-18 00:00:00 19.5 5 Noroeste 13 Oeste 0 -- -- 48
2019-04-17 23:00:00 19.2 0 Calma 13 Sudeste 0 -- -- 60
2019-04-17 22:00:00 19.4 9 Sudeste 24 Sudeste 0 -- -- 59
2019-04-17 21:00:00 21.2 21 Sudeste 28 Sudeste 0 -- -- 59
2019-04-17 20:00:00 20.5 22 Sudeste 26 Este 0 -- -- 56
2019-04-17 19:00:00 21.9 13 Este 22 Oeste 0 -- -- 53
2019-04-17 18:00:00 21 14 Oeste 23 Oeste 0 -- -- 55
2019-04-17 17:00:00 23 7 Oeste 12 Oeste 0 -- -- 50
2019-04-17 16:00:00 21.1 8 Sudoeste 13 Sur 0 -- -- 50
2019-04-17 15:00:00 23.2 9 Sur 15 Sur 0 -- -- 47
2019-04-17 14:00:00 21.1 11 Sur 16 Sur 0 -- -- 50
2019-04-17 13:00:00 20 13 Sudeste 20 Sudeste 0 -- -- 51
2019-04-17 12:00:00 20.1 13 Sudeste 18 Sudeste 0 -- -- 49
2019-04-17 11:00:00 19.5 12 Sudeste 17 Sudeste 0 -- -- 52
2019-04-17 10:00:00 23.3 4 Sudeste 11 Nordeste 0 -- -- 48
2019-04-17 09:00:00 17.3 7 Norte 13 Norte 0 -- -- 49
2019-04-17 08:00:00 17 9 Norte 14 Nordeste 0 -- -- 52
2019-04-17 07:00:00 18.6 9 Norte 14 Norte 0 -- -- 57
2019-04-17 06:00:00 19.1 6 Nordeste 18 Sudeste 0 -- -- 62
2019-04-17 05:00:00 18.6 7 Norte 12 Nordeste 0 -- -- 60
2019-04-17 04:00:00 19.1 9 Norte 18 Este 0 -- -- 61
2019-04-17 03:00:00 17.6 7 Este 13 Este 0 -- -- 61
2019-04-17 02:00:00 19.1 6 Este 11 Este 0 -- -- 61
2019-04-17 01:00:00 16 0 Calma 10 Norte 0 -- -- 59
2019-04-17 00:00:00 18.9 3 Noroeste 24 Oeste 0 -- -- 61
2019-04-16 23:00:00 19.5 18 Oeste 31 Oeste 0 -- -- 61
2019-04-16 22:00:00 19.9 22 Oeste 32 Oeste 0 -- -- 60
2019-04-16 21:00:00 21.3 20 Oeste 31 Noroeste 0 -- -- 58
2019-04-16 20:00:00 19.3 23 Oeste 31 Oeste 0 -- -- 56
2019-04-16 19:00:00 20.4 24 Oeste 32 Oeste 0 -- -- 55
2019-04-16 18:00:00 19.5 23 Oeste 31 Oeste 0 -- -- 55
2019-04-16 17:00:00 22.6 21 Oeste 28 Noroeste 0 -- -- 54
2019-04-16 16:00:00 21.1 17 Oeste 24 Oeste 0 -- -- 52
2019-04-16 15:00:00 21.9 17 Oeste 22 Oeste 0 -- -- 53
2019-04-16 14:00:00 21.4 6 Sur 17 Sudeste 0 -- -- 53
2019-04-16 13:00:00 20.7 15 Sudeste 18 Sudeste -- -- -- 57
2019-04-16 12:00:00 22.2 12 Sudeste 14 Sudeste -- -- -- 55
2019-04-16 11:00:00 21.8 12 Sudeste 14 Sudeste -- -- -- 60
2019-04-16 10:00:00 23.1 4 Oeste 12 Norte 0 -- -- 62
2019-04-16 09:00:00 22.5 8 Norte 15 Norte 0 -- -- 61
2019-04-16 08:00:00 19.6 11 Norte 17 Norte 0 -- -- 65
2019-04-16 07:00:00 20.6 14 Norte 40 Norte 0 -- -- 66
2019-04-16 06:00:00 20.7 10 Norte 16 Norte 0 -- -- 65
2019-04-16 05:00:00 20.7 12 Norte 15 Norte 0 -- -- 65
2019-04-16 04:00:00 20.4 9 Norte 12 Norte 0 -- -- 64
2019-04-16 03:00:00 20.9 8 Norte 11 Norte 0 -- -- 64
2019-04-16 02:00:00 22.3 5 Norte 7 Norte 0 -- -- 63
2019-04-16 01:00:00 22.8 5 Sur 8 Sudeste 0 -- -- 64
2019-04-16 00:00:00 22.6 8 Sudeste 14 Sudeste 0 -- -- 62
2019-04-15 23:00:00 22.1 11 Sudeste 13 Sudeste 0 -- -- 61
2019-04-15 22:00:00 22.9 10 Sudeste 12 Este 0 -- -- 59
2019-04-15 21:00:00 22.9 0 Calma 6 Oeste 0 -- -- 57
2019-04-15 20:00:00 24 5 Oeste 17 Sudoeste 0 -- -- 56
2019-04-15 19:00:00 24.6 11 Sudoeste 17 Oeste 0 -- -- 56
2019-04-15 18:00:00 24.4 12 Sudoeste 19 Sudoeste 0 -- -- 55
2019-04-15 17:00:00 24.8 9 Sudoeste 15 Sur 0 -- -- 52
2019-04-15 16:00:00 25.3 11 Sur 15 Sur 0 -- -- 51
2019-04-15 15:00:00 24.7 12 Sudoeste 20 Oeste 0 -- -- 52
2019-04-15 14:00:00 25.1 14 Oeste 21 Oeste 0 -- -- 53
2019-04-15 13:00:00 24.6 12 Sudoeste 17 Oeste 0 -- -- 53
2019-04-15 12:00:00 25.8 9 Sur 16 Sur 0 -- -- 54
2019-04-15 11:00:00 23.5 13 Sudeste 20 Sudeste 0 -- -- 58
2019-04-15 10:00:00 23.8 11 Sudeste 17 Este 0 -- -- 55
2019-04-15 09:00:00 21.2 10 Norte 16 Norte 0 -- -- 53
2019-04-15 08:00:00 20.3 12 Norte 14 Norte 0 -- -- 58
2019-04-15 07:00:00 20.2 9 Norte 13 Norte 0 -- -- 61
2019-04-15 06:00:00 20.4 10 Norte 14 Norte 0 -- -- 61
2019-04-15 05:00:00 21.3 5 Nordeste 15 Este 0 -- -- 62
2019-04-15 04:00:00 20.9 7 Nordeste 11 Norte 0 -- -- 63
2019-04-15 03:00:00 20.5 5 Norte 10 Oeste 0 -- -- 63
2019-04-15 02:00:00 23 6 Oeste 10 Oeste 0 -- -- 63
2019-04-15 01:00:00 22.4 4 Sur 8 Sudeste 0 -- -- 63
2019-04-15 00:00:00 22 8 Sudeste 14 Sudeste 0 -- -- 63
2019-04-14 23:00:00 22.1 12 Sudeste 23 Este 0 -- -- 62
2019-04-14 22:00:00 22.1 18 Este 28 Sudeste 0 -- -- 61
2019-04-14 21:00:00 21.9 26 Sudeste 30 Sudeste 0 -- -- 61
2019-04-14 20:00:00 24.8 9 Oeste 23 Oeste 0 -- -- 48
2019-04-14 19:00:00 23.8 18 Oeste 30 Oeste 0 -- -- 57
2019-04-14 18:00:00 23.6 22 Oeste 32 Oeste 0 -- -- 57
2019-04-14 17:00:00 23.3 28 Oeste 36 Oeste 0 -- -- 57
2019-04-14 16:00:00 22.8 24 Oeste 29 Oeste 0 -- -- 57
2019-04-14 15:00:00 24.4 14 Oeste 22 Oeste 0 -- -- 49
2019-04-14 14:00:00 26.6 10 Sudeste 16 Oeste 0 -- -- 44
2019-04-14 13:00:00 24.7 13 Oeste 21 Oeste 0 -- -- 47
2019-04-14 12:00:00 23.6 17 Oeste 22 Oeste 0 -- -- 52
2019-04-14 11:00:00 22.9 15 Oeste 20 Oeste 0 -- -- 57
2019-04-14 10:00:00 24 11 Oeste 18 Norte 0 -- -- 50
2019-04-14 09:00:00 20.3 13 Norte 18 Nordeste 0 -- -- 58
2019-04-14 08:00:00 19.8 14 Norte 19 Nordeste 0 -- -- 62
2019-04-14 07:00:00 19.6 12 Norte 17 Norte 0 -- -- 63
2019-04-14 06:00:00 20.3 10 Norte 15 Norte 0 -- -- 62
2019-04-14 05:00:00 20.9 10 Norte 13 Norte 0 -- -- 64
2019-04-14 04:00:00 21 6 Norte 17 Este 0 -- -- 63
2019-04-14 03:00:00 21.4 6 Este 14 Este 0 -- -- 63
2019-04-14 02:00:00 21.4 7 Nordeste 10 Nordeste 0 -- -- 62
2019-04-14 01:00:00 21.8 0 Calma 9 Oeste 0 -- -- 61
2019-04-14 00:00:00 21.8 6 Oeste 9 Oeste 0 -- -- 61
2019-04-13 23:00:00 22.1 0 Calma 14 Sudeste 0 -- -- 60
2019-04-13 22:00:00 22.9 14 Sudeste 27 Sudeste 0 -- -- 60
2019-04-13 21:00:00 23.2 21 Sudeste 29 Sudeste 0 -- -- 54
2019-04-13 20:00:00 23.5 20 Sudeste 23 Sudeste 0 -- -- 49
2019-04-13 19:00:00 25.2 5 Sudeste 13 Sudoeste 0 -- -- 43
2019-04-13 18:00:00 26.1 7 Oeste 20 Oeste 0 -- -- 46
2019-04-13 17:00:00 24.4 13 Sudoeste 19 Sudeste 0 -- -- 49
2019-04-13 16:00:00 23.5 17 Sudeste 21 Sudeste 0 -- -- 51
2019-04-13 15:00:00 24.7 15 Sudeste 27 Sudeste 0 -- -- 47
2019-04-13 14:00:00 26.3 14 Sudeste 18 Sudeste 0 -- -- 43
2019-04-13 13:00:00 25.7 8 Sudoeste 15 Sudoeste 0 -- -- 43
2019-04-13 12:00:00 25.3 10 Oeste 16 Oeste 0 -- -- 47
2019-04-13 11:00:00 25.3 4 Sur 10 Este 0 -- -- 45
2019-04-13 10:00:00 24.2 2 Sudeste 16 Norte 0 -- -- 43
2019-04-13 09:00:00 20.3 12 Norte 18 Norte 0 -- -- 44
2019-04-13 08:00:00 19.1 14 Norte 18 Norte 0 -- -- 46
2019-04-13 07:00:00 19.3 11 Norte 15 Norte 0 -- -- 46
2019-04-13 06:00:00 19.2 12 Norte 16 Norte 0 -- -- 46
2019-04-13 05:00:00 19.5 13 Norte 16 Norte 0 -- -- 46
2019-04-13 04:00:00 19.8 11 Norte 16 Norte 0 -- -- 45
2019-04-13 03:00:00 19.9 12 Norte 14 Norte 0 -- -- 45
2019-04-13 02:00:00 20.5 9 Norte 13 Norte 0 -- -- 46
2019-04-13 01:00:00 20.8 9 Norte 12 Norte 0 -- -- 51
2019-04-13 00:00:00 21.6 3 Nordeste 9 Este 0 -- -- 53
2019-04-12 23:00:00 22 2 Este 9 Este 0.1 -- -- 53
2019-04-12 22:00:00 22 2 Sudoeste 13 Sudeste 0 -- -- 53
2019-04-12 21:00:00 22.2 13 Sudeste 27 Sudeste 0 -- -- 52
2019-04-12 20:00:00 23 24 Sudeste 28 Sudeste 0 -- -- 49
2019-04-12 19:00:00 23.9 4 Sudoeste 11 Sur 0 -- -- 44
2019-04-12 18:00:00 24.6 9 Sur 20 Sudoeste 0 -- -- 45
2019-04-12 17:00:00 24.5 10 Sudoeste 21 Sur 0 -- -- 44
2019-04-12 16:00:00 22.9 17 Sudeste 23 Sudeste 0 -- -- 48
2019-04-12 15:00:00 25 18 Sudeste 22 Sudeste 0 -- -- 45
2019-04-12 14:00:00 27.8 6 Este 17 Sur 0 -- -- 39
2019-04-12 13:00:00 24.2 13 Sudoeste 20 Sudoeste 0 -- -- 47
2019-04-12 12:00:00 24 10 Sudoeste 14 Sudoeste 0 -- -- 49
2019-04-12 11:00:00 23.5 9 Sudeste 15 Sudeste 0 -- -- 51
2019-04-12 10:00:00 23.7 10 Este 16 Este 0 -- -- 51
2019-04-12 09:00:00 20.4 8 Norte 15 Norte 0 -- -- 56
2019-04-12 08:00:00 19.5 10 Norte 14 Norte 0 -- -- 57
2019-04-12 07:00:00 20 8 Norte 15 Norte 0 -- -- 55
2019-04-12 06:00:00 19.8 11 Norte 17 Norte 0 -- -- 54
2019-04-12 05:00:00 20.1 10 Norte 16 Norte 0 -- -- 54
2019-04-12 04:00:00 20.2 8 Norte 10 Norte 0 -- -- 55
2019-04-12 03:00:00 20.2 9 Norte 12 Norte 0 -- -- 54
2019-04-12 02:00:00 21.4 5 Nordeste 9 Nordeste 0 -- -- 53
2019-04-12 01:00:00 21.9 5 Nordeste 15 Este 0 -- -- 53
2019-04-12 00:00:00 21.8 8 Este 13 Este 0.1 -- -- 54
2019-04-11 23:00:00 22.2 6 Este 15 Este 0.1 -- -- 53
2019-04-11 22:00:00 22.5 12 Sudeste 17 Este 0 -- -- 52
2019-04-11 21:00:00 22.4 13 Este 21 Este 0 -- -- 50
2019-04-11 20:00:00 22.9 9 Sudeste 16 Este 0 -- -- 49
2019-04-11 19:00:00 23.8 9 Sur 14 Sur 0 -- -- 46
2019-04-11 18:00:00 24.9 9 Sur 14 Sur 0 -- -- 43
2019-04-11 17:00:00 25.1 8 Sur 17 Sur 0 -- -- 45
2019-04-11 16:00:00 25 10 Sur 18 Sur 0 -- -- 44
2019-04-11 15:00:00 24.8 12 Sur 19 Sur 0 -- -- 45
2019-04-11 14:00:00 25.5 6 Sur 15 Sur 0 -- -- 42
2019-04-11 13:00:00 25.3 10 Sur 13 Sur 0 -- -- 43
2019-04-11 12:00:00 26.1 6 Sur 12 Sur 0 -- -- 43
2019-04-11 11:00:00 24.9 6 Sur 11 Sur 0 -- -- 45
2019-04-11 10:00:00 22.7 3 Nordeste 14 Norte 0 -- -- 46
2019-04-11 09:00:00 20 11 Norte 17 Norte 0 -- -- 48
2019-04-11 08:00:00 19.2 13 Norte 17 Norte 0 -- -- 49
2019-04-11 07:00:00 19.5 13 Norte 15 Norte 0 -- -- 49
2019-04-11 06:00:00 19.4 12 Norte 16 Norte 0.1 -- -- 48
2019-04-11 05:00:00 20.2 10 Norte 14 Norte 0 -- -- 47
2019-04-11 04:00:00 20.7 6 Norte 16 Nordeste 0 -- -- 44
2019-04-11 03:00:00 21.4 9 Nordeste 17 Nordeste 0 -- -- 44
2019-04-11 02:00:00 21.5 13 Nordeste 19 Nordeste 0 -- -- 45
2019-04-11 01:00:00 21.8 3 Este 10 Sur 0 -- -- 53
2019-04-11 00:00:00 22.5 6 Sur 18 Este 0 -- -- 52
2019-04-10 23:00:00 22.6 3 Sudeste 19 Sur 0 -- -- 49
2019-04-10 22:00:00 22.7 14 Sur 20 Sur 0 -- -- 53
2019-04-10 21:00:00 22.6 15 Sur 21 Sur 0 -- -- 52
2019-04-10 20:00:00 22.7 12 Sur 23 Sur 0 -- -- 50
2019-04-10 19:00:00 23.4 17 Sur 26 Sur 0 -- -- 49
2019-04-10 18:00:00 22.9 19 Sudeste 25 Sur 0 -- -- 48
2019-04-10 17:00:00 23.3 18 Sur 23 Sur 0 -- -- 46
2019-04-10 16:00:00 24.6 12 Sur 21 Sur 0 -- -- 44
2019-04-10 15:00:00 24.1 15 Sur 21 Sur 0 -- -- 45
2019-04-10 14:00:00 24.3 13 Sur 23 Sudoeste 0 -- -- 46
2019-04-10 13:00:00 23.8 17 Sudoeste 22 Sudoeste 0 -- -- 47
2019-04-10 12:00:00 23.6 15 Sudoeste 21 Sudoeste 0 -- -- 46
2019-04-10 11:00:00 24.1 11 Sur 18 Sur -- -- -- 45
2019-04-10 10:00:00 -- -- -- -- -- -- -- -- --
2019-04-10 09:00:00 20.4 12 Norte 17 Norte 0 -- -- 49
2019-04-10 08:00:00 20.5 9 Norte 13 Norte 0 -- -- 48
2019-04-10 07:00:00 22 3 Este 15 Sudoeste 0 -- -- 52
2019-04-10 06:00:00 21.9 10 Sudoeste 17 Sur 0 -- -- 53
2019-04-10 05:00:00 22 11 Sudoeste 21 Sudoeste 0 -- -- 54
2019-04-10 04:00:00 21.9 8 Sudoeste 14 Sudoeste 0 -- -- 54
2019-04-10 03:00:00 21.6 5 Sur 17 Sudeste 0 -- -- 54
2019-04-10 02:00:00 21.9 8 Sur 13 Sur 0.1 -- -- 52
2019-04-10 01:00:00 22 5 Sur 14 Sur 0 -- -- 57
2019-04-10 00:00:00 21.5 6 Sur 14 Sur 0 -- -- 59
2019-04-09 23:00:00 22.6 11 Sur 26 Sur 0 -- -- 60
2019-04-09 22:00:00 22.5 12 Sudeste 17 Sudeste 0 -- -- 58
2019-04-09 21:00:00 22.4 10 Sur 17 Sur 0 -- -- 58
2019-04-09 20:00:00 23.2 13 Sur 20 Sur 0 -- -- 55
2019-04-09 19:00:00 24 15 Sur 22 Sur 0 -- -- 52
2019-04-09 18:00:00 23.7 15 Sur 19 Sur 0 -- -- 52
2019-04-09 17:00:00 25.6 7 Sudeste 13 Sudoeste 0 -- -- 47
2019-04-09 16:00:00 25 7 Sudoeste 16 Sur 0 -- -- 48
2019-04-09 15:00:00 24.1 14 Sudoeste 21 Sudoeste 0 -- -- 49
2019-04-09 14:00:00 24.2 14 Sudoeste 20 Sudoeste 0 -- -- 46
2019-04-09 13:00:00 24.5 13 Sudoeste 18 Sudoeste 0 -- -- 45
2019-04-09 12:00:00 24.7 10 Sudoeste 14 Sudoeste 0 -- -- 45
2019-04-09 11:00:00 25 5 Oeste 11 Sudoeste 0 -- -- 45
2019-04-09 10:00:00 23.9 3 Nordeste 15 Nordeste 0 -- -- 46
2019-04-09 09:00:00 20.2 10 Norte 16 Norte 0 -- -- 48
2019-04-09 08:00:00 19.6 12 Norte 16 Norte 0 -- -- 50
2019-04-09 07:00:00 19.7 11 Norte 15 Norte 0 -- -- 49
2019-04-09 06:00:00 20 12 Norte 15 Norte 0 -- -- 49
2019-04-09 05:00:00 20.1 12 Norte 16 Norte 0 -- -- 49
2019-04-09 04:00:00 20 9 Norte 12 Norte 0 -- -- 49
2019-04-09 03:00:00 20.6 8 Norte 14 Norte 0 -- -- 49
2019-04-09 02:00:00 20.9 8 Norte 12 Nordeste 0 -- -- 48
2019-04-09 01:00:00 21.5 8 Norte 11 Norte 0 -- -- 48
2019-04-09 00:00:00 22.3 6 Nordeste 17 Nordeste 0 -- -- 52
2019-04-08 23:00:00 22.7 7 Este 21 Este 0 -- -- 53
2019-04-08 22:00:00 22.7 11 Este 21 Sudeste 0 -- -- 53
2019-04-08 21:00:00 22.9 8 Este 20 Sur 0 -- -- 53
2019-04-08 20:00:00 23.2 12 Sur 20 Sudoeste 0 -- -- 53
2019-04-08 19:00:00 23.4 13 Sudoeste 20 Sudoeste 0 -- -- 50
2019-04-08 18:00:00 23.8 8 Sudoeste 15 Sur 0 -- -- 48
2019-04-08 17:00:00 23.7 11 Sudeste 18 Sudeste 0 -- -- 48
2019-04-08 16:00:00 22.7 15 Sudeste 28 Sudeste 0 -- -- 52
2019-04-08 15:00:00 24.5 19 Sudeste 29 Sudeste 0 -- -- 48
2019-04-08 14:00:00 23.4 14 Sudeste 18 Sudeste 0 -- -- 46
2019-04-08 13:00:00 23.7 13 Sudeste 17 Sudeste 0 -- -- 47
2019-04-08 12:00:00 25.6 5 Sudeste 11 Sudoeste 0 -- -- 43
2019-04-08 11:00:00 24.5 6 Sudoeste 9 Sudoeste 0 -- -- 44
2019-04-08 10:00:00 24.4 0 Calma 14 Norte 0 -- -- 45
2019-04-08 09:00:00 20.2 12 Norte 17 Norte 0 -- -- 49
2019-04-08 08:00:00 19.1 13 Norte 17 Norte 0 -- -- 52
2019-04-08 07:00:00 19.2 13 Norte 16 Norte 0 -- -- 51
2019-04-08 06:00:00 19.6 11 Norte 14 Norte 0 -- -- 51
2019-04-08 05:00:00 19.7 12 Norte 16 Norte 0 -- -- 51
2019-04-08 04:00:00 20.6 10 Nordeste 14 Nordeste 0 -- -- 50
2019-04-08 03:00:00 21.6 7 Norte 10 Norte 0 -- -- 50
2019-04-08 02:00:00 22.4 4 Norte 14 Oeste 0 -- -- 51
2019-04-08 01:00:00 21.9 8 Oeste 15 Sudoeste 0 -- -- 54
2019-04-08 00:00:00 22.1 7 Sur 14 Este 0 -- -- 54
2019-04-07 23:00:00 22.4 14 Sudeste 24 Este 0 -- -- 52
2019-04-07 22:00:00 22.2 14 Sudeste 24 Sudeste 0 -- -- 50
2019-04-07 21:00:00 22 16 Sudeste 32 Este 0 -- -- 49
2019-04-07 20:00:00 23 22 Sudeste 30 Sudeste 0 -- -- 48
2019-04-07 19:00:00 23.8 23 Sudeste 27 Sudeste 0 -- -- 44
2019-04-07 18:00:00 23.9 22 Sudeste 28 Este 0 -- -- 42
2019-04-07 17:00:00 23.5 17 Sudeste 21 Sudeste 0 -- -- 42
2019-04-07 16:00:00 23.4 11 Sudeste 15 Sudeste 0 -- -- 40
2019-04-07 15:00:00 25.5 6 Sur 11 Sur 0 -- -- 37
2019-04-07 14:00:00 25.6 6 Sudoeste 16 Oeste 0 -- -- 38
2019-04-07 13:00:00 24.7 9 Oeste 19 Oeste 0 -- -- 39
2019-04-07 12:00:00 24.8 7 Sudoeste 14 Oeste 0 -- -- 40
2019-04-07 11:00:00 25.2 5 Sur 8 Sur 0 -- -- 40
2019-04-07 10:00:00 22.3 5 Norte 15 Norte 0 -- -- 42
2019-04-07 09:00:00 19.7 14 Norte 17 Norte 0 -- -- 44
2019-04-07 08:00:00 19 13 Norte 17 Norte 0 -- -- 46
2019-04-07 07:00:00 18.9 14 Norte 18 Norte 0 -- -- 45
2019-04-07 06:00:00 19 12 Norte 15 Norte 0 -- -- 44
2019-04-07 05:00:00 19.9 9 Norte 13 Norte 0 -- -- 43
2019-04-07 04:00:00 20 10 Norte 15 Nordeste 0 -- -- 42
2019-04-07 03:00:00 20.5 8 Norte 16 Norte 0 -- -- 42
2019-04-07 02:00:00 20.9 10 Norte 13 Norte 0 -- -- 39
2019-04-07 01:00:00 21.6 6 Nordeste 12 Nordeste 0 -- -- 39
2019-04-07 00:00:00 21.8 5 Norte 14 Noroeste 0 -- -- 39
2019-04-06 23:00:00 22 10 Oeste 17 Oeste 0 -- -- 43
2019-04-06 22:00:00 22 6 Oeste 12 Sudeste 0 -- -- 48
2019-04-06 21:00:00 22.5 12 Sudeste 26 Sudeste 0 -- -- 48
2019-04-06 20:00:00 22.3 21 Sudeste 27 Sudeste 0 -- -- 45
2019-04-06 19:00:00 23.5 26 Sudeste 39 Sudeste 0 -- -- 43
2019-04-06 18:00:00 24.3 28 Sudeste 40 Sudeste 0 -- -- 39
2019-04-06 17:00:00 25.3 14 Noroeste 54 Oeste 0 -- -- 32
2019-04-06 16:00:00 25.1 11 Noroeste 35 Oeste 0 -- -- 32
2019-04-06 15:00:00 24.5 9 Norte 29 Oeste 0 -- -- 31
2019-04-06 14:00:00 25.7 10 Sur 24 Sudeste 0 -- -- 35
2019-04-06 13:00:00 24.1 18 Sudeste 26 Sudeste 0 -- -- 37
2019-04-06 12:00:00 24.1 10 Norte 27 Nordeste 0 -- -- 32
2019-04-06 11:00:00 24.8 5 Norte 37 Norte 0 -- -- 31
2019-04-06 10:00:00 22.4 13 Norte 33 Noroeste 0 -- -- 35
2019-04-06 09:00:00 21.5 13 Norte 30 Norte 0 -- -- 38
2019-04-06 08:00:00 21.4 12 Norte 25 Norte 0 -- -- 37
2019-04-06 07:00:00 21 0 Calma 20 Noroeste 0 -- -- 34
2019-04-06 06:00:00 21.7 10 Norte 41 Norte 0 -- -- 33
2019-04-06 05:00:00 21.6 14 Norte 38 Norte 0 -- -- 35
2019-04-06 04:00:00 21.7 13 Norte 30 Noroeste 0 -- -- 36
2019-04-06 03:00:00 21.6 14 Norte 40 Norte 0 -- -- 39
2019-04-06 02:00:00 21.9 17 Oeste 36 Norte 0 -- -- 39
2019-04-06 01:00:00 21.7 12 Noroeste 28 Nordeste 0 -- -- 40
2019-04-06 00:00:00 22 13 Norte 32 Norte 0 -- -- 37
2019-04-05 23:00:00 22.3 19 Norte 36 Norte 0 -- -- 37
2019-04-05 22:00:00 22.4 24 Norte 51 Norte 0 -- -- 35
2019-04-05 21:00:00 22.5 12 Norte 31 Norte 0 -- -- 38
2019-04-05 20:00:00 23.2 11 Nordeste 29 Nordeste 0 -- -- 37
2019-04-05 19:00:00 24.1 13 Noroeste 40 Norte 0 -- -- 35
2019-04-05 18:00:00 24.9 19 Norte 35 Noroeste 0 -- -- 30
2019-04-05 17:00:00 25.6 9 Norte 36 Noroeste 0 -- -- 25
2019-04-05 16:00:00 25.7 14 Norte 41 Oeste 0 -- -- 24
2019-04-05 15:00:00 26.2 17 Norte 43 Norte 0 -- -- 25
2019-04-05 14:00:00 26 18 Norte 38 Norte 0 -- -- 27
2019-04-05 13:00:00 25.2 13 Nordeste 42 Oeste 0 -- -- 29
2019-04-05 12:00:00 23.1 27 Oeste 37 Oeste 0 -- -- 40
2019-04-05 11:00:00 23.8 12 Norte 32 Norte 0 -- -- 36
2019-04-05 10:00:00 23.4 2 Este 13 Este 0 -- -- 38
2019-04-05 09:00:00 20.1 7 Norte 14 Norte 0 -- -- 41
2019-04-05 08:00:00 18.9 7 Nordeste 12 Norte 0 -- -- 43
2019-04-05 07:00:00 20.6 8 Norte 17 Norte 0 -- -- 39
2019-04-05 06:00:00 19.5 4 Norte 19 Norte 0 -- -- 43
2019-04-05 05:00:00 21.5 11 Norte 19 Noroeste 0 -- -- 40
2019-04-05 04:00:00 21.6 6 Nordeste 22 Noroeste 0 -- -- 39
2019-04-05 03:00:00 21.9 12 Noroeste 26 Noroeste 0 -- -- 39
2019-04-05 02:00:00 22 12 Norte 22 Norte 0 -- -- 40
2019-04-05 01:00:00 22.1 8 Noroeste 15 Oeste 0 -- -- 41
2019-04-05 00:00:00 22.1 3 Noroeste 19 Noroeste 0 -- -- 39
2019-04-04 23:00:00 22.5 4 Nordeste 28 Norte 0 -- -- 38
2019-04-04 22:00:00 22.6 12 Norte 28 Norte 0 -- -- 36
2019-04-04 21:00:00 23 9 Noroeste 18 Norte 0 -- -- 34
2019-04-04 20:00:00 24.1 10 Norte 27 Norte 0 -- -- 34
2019-04-04 19:00:00 24.2 12 Norte 26 Noroeste 0 -- -- 35
2019-04-04 18:00:00 25.2 4 Sur 15 Sudeste 0 -- -- 43
2019-04-04 17:00:00 23.5 8 Sur 21 Sur 0 -- -- 48
2019-04-04 16:00:00 22.8 16 Sur 21 Sur 0 -- -- 48
2019-04-04 15:00:00 24.8 9 Sur 15 Sur 0 -- -- 45
2019-04-04 14:00:00 23.4 13 Sudeste 19 Sudeste 0 -- -- 48
2019-04-04 13:00:00 24.5 8 Sur 12 Sur 0 -- -- 45
2019-04-04 12:00:00 24.5 7 Sur 11 Sur 0 -- -- 44
2019-04-04 11:00:00 24.3 6 Oeste 13 Oeste 0 -- -- 45
2019-04-04 10:00:00 22.3 7 Sudoeste 14 Oeste 0 -- -- 48
2019-04-04 09:00:00 21.8 2 Noroeste 24 Oeste 0 -- -- 49
2019-04-04 08:00:00 20.1 13 Oeste 27 Oeste 0 -- -- 57
2019-04-04 07:00:00 20.1 18 Oeste 27 Oeste 0 -- -- 56
2019-04-04 06:00:00 20.4 21 Oeste 27 Oeste 0 -- -- 54
2019-04-04 05:00:00 20.4 4 Noroeste 17 Norte 0 -- -- 54
2019-04-04 04:00:00 21.2 8 Oeste 21 Norte 0 -- -- 53
2019-04-04 03:00:00 20.1 14 Nordeste 31 Nordeste 0 -- -- 49
2019-04-04 02:00:00 21.6 12 Sudeste 18 Sur 0 -- -- 53
2019-04-04 01:00:00 22 11 Sudeste 15 Sudeste 0 -- -- 53
2019-04-04 00:00:00 21.7 7 Sur 16 Sudeste 0 -- -- 49
2019-04-03 23:00:00 22.6 8 Sur 15 Sudeste 0 -- -- 48
2019-04-03 22:00:00 22.9 9 Sudeste 23 Nordeste 0 -- -- 47
2019-04-03 21:00:00 23.5 10 Nordeste 24 Oeste 0 -- -- 39
2019-04-03 20:00:00 23 9 Oeste 20 Oeste 0 -- -- 48
2019-04-03 19:00:00 23.8 12 Oeste 33 Oeste 0 -- -- 48
2019-04-03 18:00:00 23.7 16 Sudoeste 30 Oeste 0 -- -- 49
2019-04-03 17:00:00 24.1 18 Oeste 26 Oeste 0 -- -- 44
2019-04-03 16:00:00 23.6 15 Oeste 30 Oeste 0 -- -- 45
2019-04-03 15:00:00 23.2 13 Oeste 18 Noroeste 0 -- -- 45
2019-04-03 14:00:00 24 9 Oeste 18 Oeste 0 -- -- 45
2019-04-03 13:00:00 23.2 12 Oeste 18 Oeste 0 -- -- 46
2019-04-03 12:00:00 22 11 Noroeste 41 Oeste 0 -- -- 44
2019-04-03 11:00:00 24.9 5 Sudoeste 10 Sudoeste 0 -- -- 46
2019-04-03 10:00:00 20.8 6 Norte 12 Norte 0 -- -- 52
2019-04-03 09:00:00 20.5 10 Norte 13 Norte 0 -- -- 53
2019-04-03 08:00:00 19.8 9 Norte 12 Norte 0 -- -- 54
2019-04-03 07:00:00 21.3 8 Norte 10 Nordeste 0 -- -- 53
2019-04-03 06:00:00 20.8 8 Norte 14 Norte 0 -- -- 54
2019-04-03 05:00:00 20.9 8 Norte 13 Norte 0 -- -- 56
2019-04-03 04:00:00 21 7 Norte 12 Este 0 -- -- 57
2019-04-03 03:00:00 20.4 6 Este 11 Este 0 -- -- 57
2019-04-03 02:00:00 22.1 5 Este 15 Sudeste 0 -- -- 56
2019-04-03 01:00:00 22.2 8 Este 19 Sudeste 0 -- -- 55
2019-04-03 00:00:00 22 4 Este 13 Este 0 -- -- 53
2019-04-02 23:00:00 22.6 11 Oeste 19 Oeste 0 -- -- 53
2019-04-02 22:00:00 22.6 15 Oeste 23 Oeste 0 -- -- 52
2019-04-02 21:00:00 22.1 19 Oeste 27 Oeste 0 -- -- 53
2019-04-02 20:00:00 23 20 Oeste 33 Noroeste 0 -- -- 51
2019-04-02 19:00:00 22.4 24 Noroeste 32 Oeste 0 -- -- 55
2019-04-02 18:00:00 22.6 23 Oeste 33 Oeste 0 -- -- 54
2019-04-02 17:00:00 23.6 17 Oeste 26 Noroeste 0 -- -- 51
2019-04-02 16:00:00 23.4 15 Oeste 24 Noroeste 0 -- -- 52
2019-04-02 15:00:00 25.2 13 Oeste 16 Sudoeste 0 -- -- 48
2019-04-02 14:00:00 25.2 10 Sur 24 Sur 0 -- -- 50
2019-04-02 13:00:00 22.9 19 Sudeste 28 Sudeste 0 -- -- 53
2019-04-02 12:00:00 23.4 25 Sudeste 31 Sudeste 0 -- -- 52
2019-04-02 11:00:00 24.8 21 Sudeste 41 Sudeste 0 -- -- 43
2019-04-02 10:00:00 23.7 18 Sudeste 29 Sudeste 0 -- -- 47
2019-04-02 09:00:00 20.1 10 Norte 14 Norte 0.1 -- -- 52
2019-04-02 08:00:00 20 10 Norte 13 Norte 0 -- -- 53
2019-04-02 07:00:00 19.7 8 Norte 14 Norte 0 -- -- 54
2019-04-02 06:00:00 19.8 7 Norte 9 Nordeste 0 -- -- 56
2019-04-02 05:00:00 20.2 6 Nordeste 8 Nordeste 0 -- -- 54
2019-04-02 04:00:00 20.5 6 Norte 8 Norte 0 -- -- 56
2019-04-02 03:00:00 20 4 Norte 9 Norte 0 -- -- 56
2019-04-02 02:00:00 20.3 3 Oeste 8 Oeste 0 -- -- 56
2019-04-02 01:00:00 21.5 4 Sudeste 12 Sudeste 0 -- -- 56
2019-04-02 00:00:00 21 6 Sudeste 18 Sudeste 0 -- -- 55
2019-04-01 23:00:00 21.5 14 Sudeste 18 Sudeste 0 -- -- 55
2019-04-01 22:00:00 21.6 14 Sudeste 18 Sudeste 0 -- -- 55
2019-04-01 21:00:00 21.6 12 Sudeste 16 Sudeste 0 -- -- 54
2019-04-01 20:00:00 21.9 11 Sudeste 19 Sudeste 0 -- -- 53
2019-04-01 19:00:00 22.3 12 Sudeste 19 Sudeste 0 -- -- 53
2019-04-01 18:00:00 22.4 17 Sudeste 21 Sudeste 0 -- -- 52
2019-04-01 17:00:00 22 13 Sudeste 19 Sudeste 0 -- -- 52
2019-04-01 16:00:00 23.3 11 Sudeste 17 Sudeste 0 -- -- 51
2019-04-01 15:00:00 23.8 12 Sur 18 Sudeste 0 -- -- 48
2019-04-01 14:00:00 23.1 12 Sudeste 22 Sudeste 0 -- -- 49
2019-04-01 13:00:00 24.3 18 Sudeste 25 Sudeste 0 -- -- 50
2019-04-01 12:00:00 23.8 22 Sudeste 26 Sudeste 0 -- -- 49
2019-04-01 11:00:00 23.2 15 Sudeste 19 Sudeste 0 -- -- 49
2019-04-01 10:00:00 22.9 3 Este 17 Norte 0 -- -- 47
2019-04-01 09:00:00 19.5 14 Norte 19 Norte 0 -- -- 52
2019-04-01 08:00:00 18.7 13 Norte 17 Norte 0 -- -- 55
2019-04-01 07:00:00 18.9 13 Norte 15 Norte 0 -- -- 54
2019-04-01 06:00:00 19.7 11 Norte 17 Norte 0 -- -- 53
2019-04-01 05:00:00 19 10 Norte 16 Norte 0 -- -- 52
2019-04-01 04:00:00 19.6 8 Norte 15 Norte 0 -- -- 52
2019-04-01 03:00:00 20 9 Norte 14 Norte 0 -- -- 51
2019-04-01 02:00:00 21 8 Norte 11 Norte 0 -- -- 51
2019-04-01 01:00:00 21.1 5 Nordeste 13 Norte 0 -- -- 52
2019-04-01 00:00:00 22.6 5 Este 21 Este 0 -- -- 52
2019-03-31 23:00:00 21.4 11 Este 24 Este 0 -- -- 53
2019-03-31 22:00:00 22.4 14 Este 26 Este 0 -- -- 54
2019-03-31 21:00:00 22.7 13 Oeste 23 Oeste 0 -- -- 54
2019-03-31 20:00:00 22.5 12 Oeste 21 Oeste 0 -- -- 57
2019-03-31 19:00:00 23.9 15 Oeste 26 Sudoeste 0 -- -- 54
2019-03-31 18:00:00 22.9 19 Oeste 26 Oeste 0 -- -- 54
2019-03-31 17:00:00 24.6 12 Oeste 20 Oeste 0 -- -- 49
2019-03-31 16:00:00 24.1 14 Oeste 21 Sudoeste 0 -- -- 48
2019-03-31 15:00:00 24.8 4 Sur 15 Sudoeste 0 -- -- 44
2019-03-31 14:00:00 25.7 8 Sur 14 Sudeste 0 -- -- 44
2019-03-31 13:00:00 22.8 12 Sudeste 16 Sudeste 0 -- -- 51
2019-03-31 12:00:00 22.9 9 Sudeste 12 Sur 0 -- -- 49
2019-03-31 11:00:00 23.1 7 Sudeste 12 Sudeste 0 -- -- 48
2019-03-31 10:00:00 21.3 3 Nordeste 16 Norte 0 -- -- 39
2019-03-31 09:00:00 18.1 13 Norte 19 Norte 0 -- -- 44
2019-03-31 08:00:00 17 15 Norte 20 Norte 0 -- -- 47
2019-03-31 07:00:00 17.9 12 Norte 18 Norte 0 -- -- 48
2019-03-31 06:00:00 18 12 Norte 14 Norte 0 -- -- 50
2019-03-31 05:00:00 19 10 Norte 17 Norte 0 -- -- 50
2019-03-31 04:00:00 18.5 14 Norte 17 Norte 0 -- -- 49
2019-03-31 00:00:00 19.9 11 Norte 14 Norte 0 -- -- 52
2019-03-30 23:00:00 20.9 8 Este 18 Este 0 -- -- 53
2019-03-30 22:00:00 21.5 9 Este 20 Este 0 -- -- 53
2019-03-30 21:00:00 21.8 12 Este 22 Este 0 -- -- 50
2019-03-30 20:00:00 21.5 15 Oeste 23 Noroeste 0 -- -- 53
2019-03-30 19:00:00 22 14 Oeste 21 Sur 0 -- -- 51
2019-03-30 18:00:00 22.4 12 Sur 18 Sur 0 -- -- 46
2019-03-30 17:00:00 22.8 13 Sudoeste 23 Sudoeste 0.1 -- -- 46
2019-03-30 16:00:00 23.2 12 Sudoeste 22 Sur 0 -- -- 44
2019-03-30 15:00:00 24.4 8 Sur 22 Sur 0 -- -- 40
2019-03-30 14:00:00 22.6 14 Sudeste 23 Sudeste 0 -- -- 46
2019-03-30 13:00:00 22.2 16 Sudeste 22 Sur 0 -- -- 49
2019-03-30 12:00:00 23.3 12 Sur 19 Sur 0 -- -- 47
2019-03-30 11:00:00 24.1 11 Sur 16 Sudeste 0 -- -- 47
2019-03-30 10:00:00 21.8 9 Sudeste 19 Este 0 -- -- 48
2019-03-30 09:00:00 21.4 5 Nordeste 13 Norte 0 -- -- 44
2019-03-30 08:00:00 19.1 12 Norte 15 Norte 0 -- -- 48
2019-03-30 07:00:00 17.9 13 Norte 17 Norte 0 -- -- 50
2019-03-30 06:00:00 18.4 13 Norte 15 Norte 0 -- -- 49
2019-03-30 05:00:00 18.8 13 Norte 16 Norte 0 -- -- 49
2019-03-30 04:00:00 19 13 Norte 16 Norte 0 -- -- 49
2019-03-30 03:00:00 19 13 Norte 18 Norte 0 -- -- 49
2019-03-30 02:00:00 18.8 12 Norte 15 Norte 0 -- -- 49
2019-03-30 01:00:00 19.7 7 Norte 15 Norte 0 -- -- 50
2019-03-30 00:00:00 19.7 10 Norte 20 Oeste 0 -- -- 50
2019-03-29 23:00:00 21.7 13 Oeste 18 Oeste 0 -- -- 51
2019-03-29 22:00:00 21.6 6 Oeste 25 Oeste 0 -- -- 51
2019-03-29 21:00:00 21.3 16 Oeste 26 Oeste 0 -- -- 52
2019-03-29 20:00:00 21.9 18 Oeste 29 Oeste 0 -- -- 52
2019-03-29 19:00:00 22 17 Noroeste 23 Oeste 0 -- -- 57
2019-03-29 18:00:00 22.7 15 Oeste 23 Oeste 0 -- -- 49
2019-03-29 17:00:00 24.5 8 Oeste 19 Sudoeste 0 -- -- 49
2019-03-29 16:00:00 23.4 13 Sudoeste 18 Sudoeste 0 -- -- 52
2019-03-29 15:00:00 23.8 9 Sudoeste 15 Sudoeste 0 -- -- 51
2019-03-29 14:00:00 23.6 9 Sudoeste 15 Sur 0 -- -- 51
2019-03-29 13:00:00 24.6 11 Sur 15 Sur 0 -- -- 47
2019-03-29 12:00:00 24.5 13 Sur 18 Sur 0 -- -- 48
2019-03-29 11:00:00 22.8 10 Sudeste 14 Sudeste 0 -- -- 50
2019-03-29 10:00:00 26 4 Sur 9 Sur 0 -- -- 46
2019-03-29 09:00:00 22.4 3 Nordeste 16 Norte 0 -- -- 48
2019-03-29 08:00:00 19.2 13 Norte 17 Norte 0 -- -- 53
2019-03-29 07:00:00 19.1 13 Norte 17 Norte 0 -- -- 52
2019-03-29 06:00:00 18.8 13 Norte 15 Norte 0 -- -- 51
2019-03-29 05:00:00 19.1 10 Norte 15 Norte 0 -- -- 51
2019-03-29 04:00:00 19 11 Norte 14 Norte 0 -- -- 56
2019-03-29 03:00:00 19.4 9 Norte 12 Norte 0 -- -- 57
2019-03-29 02:00:00 20.2 8 Norte 12 Norte 0 -- -- 59
2019-03-29 01:00:00 21.1 0 Calma 7 Este 0 -- -- 58
2019-03-29 00:00:00 20.3 4 Sudeste 10 Sudeste 0 -- -- 57
2019-03-28 23:00:00 21.7 4 Sur 8 Sur 0 -- -- 58
2019-03-28 22:00:00 21.6 4 Sur 12 Sudeste 0 -- -- 59
2019-03-28 21:00:00 21.8 5 Sur 10 Sur 0 -- -- 59
2019-03-28 20:00:00 22.1 5 Sur 12 Sur 0 -- -- 57
2019-03-28 19:00:00 21.7 6 Sur 11 Sur 0 -- -- 55
2019-03-28 18:00:00 23.5 6 Sudoeste 13 Sur 0 -- -- 53
2019-03-28 17:00:00 23.8 7 Sudoeste 13 Oeste 0 -- -- 53
2019-03-28 16:00:00 24.4 8 Sudoeste 15 Sur 0 -- -- 51
2019-03-28 15:00:00 23.1 10 Sur 16 Sudeste 0 -- -- 53
2019-03-28 14:00:00 23.4 13 Sudeste 18 Sudeste 0 -- -- 55
2019-03-28 13:00:00 23.2 12 Sudeste 16 Sudeste 0 -- -- 53
2019-03-28 12:00:00 25.1 5 Sur 12 Sudoeste 0 -- -- 46
2019-03-28 11:00:00 24.7 6 Sudoeste 11 Oeste 0 -- -- 49
2019-03-28 10:00:00 25.9 3 Sur 7 Nordeste 0.1 -- -- 47
2019-03-28 09:00:00 21.2 6 Norte 15 Norte 0 -- -- 48
2019-03-28 08:00:00 19.5 12 Norte 18 Norte 0 -- -- 52
2019-03-28 07:00:00 19.4 14 Norte 18 Norte 0 -- -- 53
2019-03-28 06:00:00 18.6 13 Norte 17 Norte 0 -- -- 55
2019-03-28 05:00:00 19.5 12 Norte 17 Norte 0 -- -- 57
2019-03-28 04:00:00 18.8 12 Norte 15 Norte 0 -- -- 56
2019-03-28 03:00:00 19.7 9 Norte 14 Nordeste 0 -- -- 55
2019-03-28 02:00:00 20 7 Norte 10 Norte 0 -- -- 57
2019-03-28 01:00:00 21.3 7 Norte 12 Norte 0 -- -- 58
2019-03-28 00:00:00 21.8 0 Calma 6 Sur 0 -- -- 61
2019-03-27 23:00:00 22 4 Sur 6 Sudeste 0 -- -- 61
2019-03-27 22:00:00 20.9 4 Sudeste 12 Sudeste 0 -- -- 60
2019-03-27 21:00:00 21.7 11 Sudeste 19 Sudeste 0 -- -- 59
2019-03-27 20:00:00 21 15 Sudeste 19 Sudeste 0 -- -- 58
2019-03-27 19:00:00 22.5 12 Sudeste 19 Sudeste 0 -- -- 55
2019-03-27 18:00:00 22.4 12 Sudeste 14 Sudeste 0 -- -- 53
2019-03-27 17:00:00 26 6 Sur 11 Sudoeste 0 -- -- 48
2019-03-27 16:00:00 24.8 8 Sudoeste 12 Sur 0 -- -- 48
2019-03-27 15:00:00 23.4 10 Sudeste 17 Sudeste 0 -- -- 49
2019-03-27 14:00:00 22.4 14 Sudeste 18 Sudeste 0 -- -- 54
2019-03-27 13:00:00 23.3 12 Sudeste 18 Sudeste 0 -- -- 55
2019-03-27 12:00:00 23.4 13 Sudeste 15 Sudeste 0 -- -- 54
2019-03-27 11:00:00 22.1 11 Sur 15 Sudeste -- -- -- 59
2019-03-27 10:00:00 20.8 13 Sudeste 15 Sudeste -- -- -- 56
2019-03-27 09:00:00 19 5 Nordeste 15 Norte -- -- -- 57
2019-03-27 08:00:00 16.6 9 Norte 17 Norte -- -- -- 62
2019-03-27 07:00:00 15.3 13 Norte 17 Norte -- -- -- 61
2019-03-27 06:00:00 16.5 12 Norte 17 Norte -- -- -- 61
2019-03-27 05:00:00 16 11 Norte 17 Norte -- -- -- 61
2019-03-27 04:00:00 16 13 Norte 18 Norte -- -- -- 60
2019-03-27 03:00:00 16.8 10 Norte 15 Norte -- -- -- 58
2019-03-27 02:00:00 16.7 9 Norte 15 Norte -- -- -- 57
2019-03-27 01:00:00 16.8 10 Norte 12 Norte -- -- -- 56
2019-03-27 00:00:00 17.3 3 Norte 10 Nordeste -- -- -- 55